Darstellungsparameter: Aktuell verwendete Einstellungen:
Skalierung der Graphiken ... ?
xyx+y,   Skalierungsfaktor:      Skalierung: Modus: x, Faktor: 1
Darstellungszeitraum ... ?
Vom - - bis: - -   Zeitraum: 29.11.2020 - 30.11.2020
Min/Max/Avg-Anzeige ... ?
Zeige MMA aktuell
Zeige MMA Monat
Zeige MMA alles
Zeige --A aktuell
Zeige --A Monat
Zeige --A alles
Keine MMA-Anzeige
MMA:
Average (ber die Originaldaten)
MMA-Basis: 29.11.2020 - 30.11.2020
Quicknavigation für Darstellung... ?
Tage:      1T, 2T, 3T, 5T -1T -2T -3T -5T +1T +2T +3T +5T
Wochen: 1W, 2W, 3W -1W -2W -3W +1W +2W +3W
Monate: 1M, 3M, 6M -1M -3M -6M +1M +3M +6M
Jahre:    1J, 3J, 5J, 10J -1J -3J -5J -10J +1J +3J +5J +10J
Nutze für die Darstellung ... ?
Originaldaten oder Mittelwerte auf ...
Stundenbasis Tagesbasis Wochenbasis
Monatsbasis Jahresbasis      Datenbasis: Original-Daten
Darstellen als:
Statistik (Auto) Statistik J:M      Darstellung:
Zur Graphik,    zurück zur Übersicht aller Sensoren.
 
Tabellarische Datenbersicht: ?
 
Sensor: Nr:Datum:Temp:Abs-Feuchte:Windchill:Wind:
Aussen-T/F 1 29-11-2020 00:00:00 3.8 C 5.77 g/m*3 3.8 C 0 km/h
2 29-11-2020 00:05:00 3.8 C 5.77 g/m*3 3.8 C 4.8 km/h
3 29-11-2020 00:10:00 3.8 C 5.77 g/m*3 3.8 C 4.8 km/h
4 29-11-2020 00:15:00 3.9 C 5.81 g/m*3 3.9 C 1.6 km/h
5 29-11-2020 00:20:00 3.8 C 5.71 g/m*3 3.8 C 4.8 km/h
6 29-11-2020 00:25:00 3.8 C 5.71 g/m*3 3.8 C 4.8 km/h
7 29-11-2020 00:30:00 3.9 C 5.75 g/m*3 3.9 C 4.8 km/h
8 29-11-2020 00:35:00 3.9 C 5.75 g/m*3 3.9 C 4.8 km/h
9 29-11-2020 00:40:00 3.9 C 5.75 g/m*3 2.32 C 6.4 km/h
10 29-11-2020 00:45:00 3.9 C 5.75 g/m*3 3.9 C 3.2 km/h
11 29-11-2020 00:50:00 3.9 C 5.75 g/m*3 3.9 C 1.6 km/h
12 29-11-2020 00:55:00 3.9 C 5.75 g/m*3 2.32 C 6.4 km/h
13 29-11-2020 01:00:00 3.9 C 5.75 g/m*3 3.9 C 3.2 km/h
14 29-11-2020 01:05:00 3.8 C 5.71 g/m*3 3.8 C 1.6 km/h
15 29-11-2020 01:10:00 3.8 C 5.71 g/m*3 3.8 C 4.8 km/h
16 29-11-2020 01:15:00 3.8 C 5.71 g/m*3 3.8 C 3.2 km/h
17 29-11-2020 01:20:00 3.8 C 5.71 g/m*3 0.94 C 11.3 km/h
18 29-11-2020 01:25:00 3.7 C 5.55 g/m*3 0.82 C 11.3 km/h
19 29-11-2020 01:30:00 3.5 C 5.47 g/m*3 0.27 C 12.9 km/h
20 29-11-2020 01:35:00 3.4 C 5.37 g/m*3 0.46 C 11.3 km/h
21 29-11-2020 01:40:00 3.3 C 5.34 g/m*3 0.34 C 11.3 km/h
22 29-11-2020 01:45:00 3.2 C 5.3 g/m*3 0.58 C 9.7 km/h
23 29-11-2020 01:50:00 3.2 C 5.3 g/m*3 1.51 C 6.4 km/h
24 29-11-2020 01:55:00 3.1 C 5.27 g/m*3 3.1 C 3.2 km/h
25 29-11-2020 02:00:00 3.1 C 5.27 g/m*3 3.1 C 1.6 km/h
Sensor: Nr:Datum:Temp:Abs-Feuchte:Windchill:Wind:
Aussen-T/F 26 29-11-2020 02:05:00 3.1 C 5.27 g/m*3 3.1 C 3.2 km/h
27 29-11-2020 02:10:00 3 C 5.23 g/m*3 1.28 C 6.4 km/h
28 29-11-2020 02:15:00 2.9 C 5.2 g/m*3 2.9 C 3.2 km/h
29 29-11-2020 02:20:00 2.9 C 5.2 g/m*3 2.9 C 3.2 km/h
30 29-11-2020 02:25:00 2.9 C 5.2 g/m*3 2.9 C 1.6 km/h
31 29-11-2020 02:30:00 2.8 C 5.16 g/m*3 1.05 C 6.4 km/h
32 29-11-2020 02:35:00 2.8 C 5.1 g/m*3 1.05 C 6.4 km/h
33 29-11-2020 02:40:00 2.8 C 5.1 g/m*3 2.8 C 3.2 km/h
34 29-11-2020 02:45:00 2.7 C 5.07 g/m*3 -0.02 C 9.7 km/h
35 29-11-2020 02:50:00 2.7 C 5.07 g/m*3 2.7 C 4.8 km/h
36 29-11-2020 02:55:00 2.7 C 5.07 g/m*3 2.7 C 3.2 km/h
37 29-11-2020 03:00:00 2.7 C 5.07 g/m*3 0.4 C 8.1 km/h
38 29-11-2020 03:05:00 2.7 C 5.13 g/m*3 2.7 C 1.6 km/h
39 29-11-2020 03:10:00 2.7 C 5.07 g/m*3 0.94 C 6.4 km/h
40 29-11-2020 03:15:00 2.7 C 5.07 g/m*3 2.7 C 3.2 km/h
41 29-11-2020 03:20:00 2.7 C 5.07 g/m*3 2.7 C 4.8 km/h
42 29-11-2020 03:25:00 2.7 C 5.07 g/m*3 0.4 C 8.1 km/h
43 29-11-2020 03:30:00 2.7 C 5.07 g/m*3 2.7 C 3.2 km/h
44 29-11-2020 03:35:00 2.7 C 5.07 g/m*3 2.7 C 1.6 km/h
45 29-11-2020 03:40:00 2.7 C 5.07 g/m*3 2.7 C 0 km/h
46 29-11-2020 03:45:00 2.7 C 5.07 g/m*3 2.7 C 1.6 km/h
47 29-11-2020 03:50:00 2.7 C 5.07 g/m*3 0.94 C 6.4 km/h
48 29-11-2020 03:55:00 2.7 C 5.01 g/m*3 0.4 C 8.1 km/h
49 29-11-2020 04:00:00 2.6 C 5.03 g/m*3 2.6 C 1.6 km/h
50 29-11-2020 04:05:00 2.6 C 4.98 g/m*3 0.29 C 8.1 km/h
Sensor: Nr:Datum:Temp:Abs-Feuchte:Windchill:Wind:
Aussen-T/F 51 29-11-2020 04:10:00 2.6 C 4.98 g/m*3 2.6 C 3.2 km/h
52 29-11-2020 04:15:00 2.6 C 4.98 g/m*3 0.29 C 8.1 km/h
53 29-11-2020 04:20:00 2.5 C 4.94 g/m*3 0.71 C 6.4 km/h
54 29-11-2020 04:25:00 2.5 C 4.94 g/m*3 0.71 C 6.4 km/h
55 29-11-2020 04:30:00 2.4 C 4.91 g/m*3 0.59 C 6.4 km/h
56 29-11-2020 04:35:00 2.4 C 4.91 g/m*3 2.4 C 1.6 km/h
57 29-11-2020 04:40:00 2.4 C 4.91 g/m*3 0.59 C 6.4 km/h
58 29-11-2020 04:45:00 2.4 C 4.91 g/m*3 2.4 C 0 km/h
59 29-11-2020 04:50:00 2.4 C 4.91 g/m*3 2.4 C 1.6 km/h
60 29-11-2020 04:55:00 2.4 C 4.91 g/m*3 2.4 C 0 km/h
61 29-11-2020 05:00:00 2.3 C 4.88 g/m*3 2.3 C 0 km/h
62 29-11-2020 05:05:00 2.3 C 4.88 g/m*3 2.3 C 1.6 km/h
63 29-11-2020 05:10:00 2.3 C 4.88 g/m*3 2.3 C 0 km/h
64 29-11-2020 05:15:00 2.3 C 4.88 g/m*3 2.3 C 3.2 km/h
65 29-11-2020 05:20:00 2.3 C 4.88 g/m*3 2.3 C 0 km/h
66 29-11-2020 05:25:00 2.3 C 4.88 g/m*3 2.3 C 3.2 km/h
67 29-11-2020 05:30:00 2.3 C 4.88 g/m*3 2.3 C 1.6 km/h
68 29-11-2020 05:35:00 2.3 C 4.88 g/m*3 2.3 C 3.2 km/h
69 29-11-2020 05:40:00 2.3 C 4.88 g/m*3 -0.49 C 9.7 km/h
70 29-11-2020 05:45:00 2.3 C 4.88 g/m*3 2.3 C 4.8 km/h
71 29-11-2020 05:50:00 2.3 C 4.82 g/m*3 2.3 C 4.8 km/h
72 29-11-2020 05:55:00 2.3 C 4.82 g/m*3 2.3 C 3.2 km/h
73 29-11-2020 06:00:00 2.3 C 4.88 g/m*3 2.3 C 3.2 km/h
74 29-11-2020 06:05:00 2.3 C 4.88 g/m*3 2.3 C 1.6 km/h
75 29-11-2020 06:10:00 2.2 C 4.79 g/m*3 2.2 C 4.8 km/h
Sensor: Nr:Datum:Temp:Abs-Feuchte:Windchill:Wind:
Aussen-T/F 76 29-11-2020 06:15:00 2.2 C 4.79 g/m*3 2.2 C 4.8 km/h
77 29-11-2020 06:20:00 2.2 C 4.84 g/m*3 2.2 C 4.8 km/h
78 29-11-2020 06:25:00 2.2 C 4.79 g/m*3 2.2 C 0 km/h
79 29-11-2020 06:30:00 2.2 C 4.79 g/m*3 2.2 C 3.2 km/h
80 29-11-2020 06:35:00 2.2 C 4.79 g/m*3 2.2 C 1.6 km/h
81 29-11-2020 06:40:00 2.1 C 4.76 g/m*3 2.1 C 4.8 km/h
82 29-11-2020 06:45:00 2.1 C 4.76 g/m*3 2.1 C 3.2 km/h
83 29-11-2020 06:50:00 2.1 C 4.76 g/m*3 2.1 C 0 km/h
84 29-11-2020 06:55:00 2.1 C 4.76 g/m*3 2.1 C 0 km/h
85 29-11-2020 07:00:00 2.1 C 4.76 g/m*3 2.1 C 3.2 km/h
86 29-11-2020 07:05:00 2 C 4.72 g/m*3 2 C 3.2 km/h
87 29-11-2020 07:10:00 2 C 4.72 g/m*3 2 C 3.2 km/h
88 29-11-2020 07:15:00 2 C 4.72 g/m*3 2 C 1.6 km/h
89 29-11-2020 07:20:00 1.9 C 4.69 g/m*3 1.9 C 3.2 km/h
90 29-11-2020 07:25:00 1.9 C 4.64 g/m*3 1.9 C 4.8 km/h
91 29-11-2020 07:30:00 1.9 C 4.69 g/m*3 1.9 C 1.6 km/h
92 29-11-2020 07:35:00 1.9 C 4.69 g/m*3 1.9 C 0 km/h
93 29-11-2020 07:40:00 1.9 C 4.64 g/m*3 1.9 C 3.2 km/h
94 29-11-2020 07:45:00 1.8 C 4.6 g/m*3 1.8 C 3.2 km/h
95 29-11-2020 07:50:00 1.8 C 4.6 g/m*3 1.8 C 4.8 km/h
96 29-11-2020 07:55:00 1.8 C 4.6 g/m*3 -0.65 C 8.1 km/h
97 29-11-2020 08:00:00 1.8 C 4.6 g/m*3 1.8 C 4.8 km/h
98 29-11-2020 08:05:00 1.8 C 4.6 g/m*3 1.8 C 0 km/h
99 29-11-2020 08:10:00 1.8 C 4.6 g/m*3 1.8 C 0 km/h
100 29-11-2020 08:15:00 1.8 C 4.6 g/m*3 1.8 C 1.6 km/h
Sensor: Nr:Datum:Temp:Abs-Feuchte:Windchill:Wind:
Aussen-T/F 101 29-11-2020 08:20:00 1.7 C 4.57 g/m*3 -1.21 C 9.7 km/h
102 29-11-2020 08:25:00 1.7 C 4.57 g/m*3 1.7 C 0 km/h
103 29-11-2020 08:30:00 1.7 C 4.57 g/m*3 -1.59 C 11.3 km/h
104 29-11-2020 08:35:00 1.7 C 4.57 g/m*3 1.7 C 3.2 km/h
105 29-11-2020 08:40:00 1.7 C 4.57 g/m*3 1.7 C 3.2 km/h
106 29-11-2020 08:45:00 1.7 C 4.52 g/m*3 -0.77 C 8.1 km/h
107 29-11-2020 08:50:00 1.6 C 4.49 g/m*3 -0.33 C 6.4 km/h
108 29-11-2020 08:55:00 1.6 C 4.49 g/m*3 1.6 C 3.2 km/h
109 29-11-2020 09:00:00 1.6 C 4.49 g/m*3 1.6 C 4.8 km/h
110 29-11-2020 09:05:00 1.6 C 4.49 g/m*3 1.6 C 3.2 km/h
111 29-11-2020 09:10:00 1.6 C 4.49 g/m*3 1.6 C 3.2 km/h
112 29-11-2020 09:15:00 1.6 C 4.49 g/m*3 -0.33 C 6.4 km/h
113 29-11-2020 09:20:00 1.6 C 4.49 g/m*3 1.6 C 3.2 km/h
114 29-11-2020 09:25:00 1.6 C 4.49 g/m*3 1.6 C 3.2 km/h
115 29-11-2020 09:30:00 1.6 C 4.49 g/m*3 -0.33 C 6.4 km/h
116 29-11-2020 09:35:00 1.5 C 4.4 g/m*3 -1.01 C 8.1 km/h
117 29-11-2020 09:40:00 1.5 C 4.4 g/m*3 -1.01 C 8.1 km/h
118 29-11-2020 09:45:00 1.6 C 4.49 g/m*3 1.6 C 3.2 km/h
119 29-11-2020 09:50:00 1.6 C 4.43 g/m*3 -0.89 C 8.1 km/h
120 29-11-2020 09:55:00 1.6 C 4.43 g/m*3 1.6 C 4.8 km/h
121 29-11-2020 10:00:00 1.6 C 4.43 g/m*3 -0.33 C 6.4 km/h
122 29-11-2020 10:05:00 1.7 C 4.46 g/m*3 1.7 C 3.2 km/h
123 29-11-2020 10:10:00 1.7 C 4.46 g/m*3 -0.77 C 8.1 km/h
124 29-11-2020 10:15:00 1.7 C 4.46 g/m*3 -0.22 C 6.4 km/h
125 29-11-2020 10:20:00 1.7 C 4.46 g/m*3 -0.22 C 6.4 km/h
Sensor: Nr:Datum:Temp:Abs-Feuchte:Windchill:Wind:
Aussen-T/F 126 29-11-2020 10:25:00 1.7 C 4.46 g/m*3 1.7 C 3.2 km/h
127 29-11-2020 10:30:00 1.8 C 4.49 g/m*3 -0.65 C 8.1 km/h
128 29-11-2020 10:35:00 1.8 C 4.49 g/m*3 -0.1 C 6.4 km/h
129 29-11-2020 10:40:00 1.8 C 4.49 g/m*3 1.8 C 4.8 km/h
130 29-11-2020 10:45:00 1.9 C 4.53 g/m*3 1.9 C 3.2 km/h
131 29-11-2020 10:50:00 1.9 C 4.47 g/m*3 -0.97 C 9.7 km/h
132 29-11-2020 10:55:00 2 C 4.56 g/m*3 2 C 3.2 km/h
133 29-11-2020 11:00:00 2 C 4.45 g/m*3 -1.23 C 11.3 km/h
134 29-11-2020 11:05:00 2 C 4.45 g/m*3 -1.23 C 11.3 km/h
135 29-11-2020 11:10:00 2 C 4.5 g/m*3 -0.42 C 8.1 km/h
136 29-11-2020 11:15:00 2.1 C 4.48 g/m*3 0.24 C 6.4 km/h
137 29-11-2020 11:20:00 2.1 C 4.48 g/m*3 0.24 C 6.4 km/h
138 29-11-2020 11:25:00 2.1 C 4.48 g/m*3 -0.3 C 8.1 km/h
139 29-11-2020 11:30:00 2.1 C 4.48 g/m*3 0.24 C 6.4 km/h
140 29-11-2020 11:35:00 2.1 C 4.48 g/m*3 -0.73 C 9.7 km/h
141 29-11-2020 11:40:00 2.1 C 4.48 g/m*3 2.1 C 3.2 km/h
142 29-11-2020 11:45:00 2.2 C 4.51 g/m*3 2.2 C 4.8 km/h
143 29-11-2020 11:50:00 2.2 C 4.45 g/m*3 -0.18 C 8.1 km/h
144 29-11-2020 11:55:00 2.1 C 4.48 g/m*3 0.24 C 6.4 km/h
145 29-11-2020 12:00:00 2.1 C 4.42 g/m*3 2.1 C 4.8 km/h
146 29-11-2020 12:05:00 2.2 C 4.45 g/m*3 -0.61 C 9.7 km/h
147 29-11-2020 12:10:00 2.2 C 4.45 g/m*3 2.2 C 1.6 km/h
148 29-11-2020 12:15:00 2.2 C 4.45 g/m*3 -0.18 C 8.1 km/h
149 29-11-2020 12:20:00 2.3 C 4.48 g/m*3 0.47 C 6.4 km/h
150 29-11-2020 12:25:00 2.2 C 4.45 g/m*3 -0.18 C 8.1 km/h
Sensor: Nr:Datum:Temp:Abs-Feuchte:Windchill:Wind:
Aussen-T/F 151 29-11-2020 12:30:00 2.3 C 4.48 g/m*3 0.47 C 6.4 km/h
152 29-11-2020 12:35:00 2.3 C 4.54 g/m*3 -0.07 C 8.1 km/h
153 29-11-2020 12:40:00 2.4 C 4.51 g/m*3 2.4 C 4.8 km/h
154 29-11-2020 12:45:00 2.4 C 4.51 g/m*3 2.4 C 4.8 km/h
155 29-11-2020 12:50:00 2.5 C 4.54 g/m*3 2.5 C 4.8 km/h
156 29-11-2020 12:55:00 2.5 C 4.48 g/m*3 2.5 C 4.8 km/h
157 29-11-2020 13:00:00 2.6 C 4.57 g/m*3 0.82 C 6.4 km/h
158 29-11-2020 13:05:00 2.6 C 4.51 g/m*3 -0.14 C 9.7 km/h
159 29-11-2020 13:10:00 2.6 C 4.46 g/m*3 -0.5 C 11.3 km/h
160 29-11-2020 13:15:00 2.5 C 4.48 g/m*3 0.17 C 8.1 km/h
161 29-11-2020 13:20:00 2.5 C 4.48 g/m*3 0.71 C 6.4 km/h
162 29-11-2020 13:25:00 2.6 C 4.51 g/m*3 -0.83 C 12.9 km/h
163 29-11-2020 13:30:00 2.6 C 4.51 g/m*3 -0.14 C 9.7 km/h
164 29-11-2020 13:35:00 2.6 C 4.46 g/m*3 0.29 C 8.1 km/h
165 29-11-2020 13:40:00 2.6 C 4.46 g/m*3 -0.14 C 9.7 km/h
166 29-11-2020 13:45:00 2.6 C 4.46 g/m*3 0.29 C 8.1 km/h
167 29-11-2020 13:50:00 2.6 C 4.46 g/m*3 0.29 C 8.1 km/h
168 29-11-2020 13:55:00 2.6 C 4.46 g/m*3 0.29 C 8.1 km/h
169 29-11-2020 14:00:00 2.6 C 4.46 g/m*3 2.6 C 3.2 km/h
170 29-11-2020 14:05:00 2.6 C 4.46 g/m*3 2.6 C 4.8 km/h
171 29-11-2020 14:10:00 2.6 C 4.46 g/m*3 0.82 C 6.4 km/h
172 29-11-2020 14:15:00 2.6 C 4.46 g/m*3 0.82 C 6.4 km/h
173 29-11-2020 14:20:00 2.6 C 4.4 g/m*3 -0.14 C 9.7 km/h
174 29-11-2020 14:25:00 2.6 C 4.46 g/m*3 0.82 C 6.4 km/h
175 29-11-2020 14:30:00 2.6 C 4.46 g/m*3 2.6 C 4.8 km/h
Sensor: Nr:Datum:Temp:Abs-Feuchte:Windchill:Wind:
Aussen-T/F 176 29-11-2020 14:35:00 2.6 C 4.46 g/m*3 2.6 C 3.2 km/h
177 29-11-2020 14:40:00 2.6 C 4.46 g/m*3 2.6 C 3.2 km/h
178 29-11-2020 14:45:00 2.6 C 4.46 g/m*3 2.6 C 3.2 km/h
179 29-11-2020 14:50:00 2.6 C 4.4 g/m*3 0.82 C 6.4 km/h
180 29-11-2020 14:55:00 2.5 C 4.37 g/m*3 -0.95 C 12.9 km/h
181 29-11-2020 15:00:00 2.4 C 4.34 g/m*3 0.59 C 6.4 km/h
182 29-11-2020 15:05:00 2.4 C 4.4 g/m*3 2.4 C 3.2 km/h
183 29-11-2020 15:10:00 2.4 C 4.4 g/m*3 2.4 C 0 km/h
184 29-11-2020 15:15:00 2.4 C 4.4 g/m*3 2.4 C 3.2 km/h
185 29-11-2020 15:20:00 2.4 C 4.4 g/m*3 2.4 C 4.8 km/h
186 29-11-2020 15:25:00 2.4 C 4.4 g/m*3 0.05 C 8.1 km/h
187 29-11-2020 15:30:00 2.3 C 4.37 g/m*3 2.3 C 4.8 km/h
188 29-11-2020 15:35:00 2.3 C 4.31 g/m*3 2.3 C 4.8 km/h
189 29-11-2020 15:40:00 2.3 C 4.37 g/m*3 2.3 C 3.2 km/h
190 29-11-2020 15:45:00 2.2 C 4.39 g/m*3 2.2 C 0 km/h
191 29-11-2020 15:50:00 2.2 C 4.39 g/m*3 2.2 C 0 km/h
192 29-11-2020 15:55:00 1.9 C 4.3 g/m*3 1.9 C 0 km/h
193 29-11-2020 16:00:00 1.7 C 4.25 g/m*3 1.7 C 1.6 km/h
194 29-11-2020 16:05:00 1.4 C 4.21 g/m*3 1.4 C 3.2 km/h
195 29-11-2020 16:10:00 1.2 C 4.21 g/m*3 1.2 C 3.2 km/h
196 29-11-2020 16:15:00 1 C 4.15 g/m*3 1 C 3.2 km/h
197 29-11-2020 16:20:00 0.8 C 4.15 g/m*3 0.8 C 1.6 km/h
198 29-11-2020 16:25:00 0.6 C 4.14 g/m*3 0.6 C 3.2 km/h
199 29-11-2020 16:30:00 0.4 C 4.08 g/m*3 0.4 C 3.2 km/h
200 29-11-2020 16:35:00 0.2 C 4.08 g/m*3 0.2 C 1.6 km/h
Sensor: Nr:Datum:Temp:Abs-Feuchte:Windchill:Wind:
Aussen-T/F 201 29-11-2020 16:40:00 0.1 C 4.05 g/m*3 0.1 C 4.8 km/h
202 29-11-2020 16:45:00 -0.1 C 4.04 g/m*3 -0.1 C 4.8 km/h
203 29-11-2020 16:50:00 -0.2 C 4.01 g/m*3 -0.2 C 1.6 km/h
204 29-11-2020 16:55:00 -0.3 C 3.99 g/m*3 -0.3 C 1.6 km/h
205 29-11-2020 17:00:00 -0.4 C 4.01 g/m*3 -0.4 C 0 km/h
206 29-11-2020 17:05:00 -0.5 C 3.98 g/m*3 -0.5 C 0 km/h
207 29-11-2020 17:10:00 -0.6 C 4 g/m*3 -0.6 C 0 km/h
208 29-11-2020 17:15:00 -0.6 C 4 g/m*3 -0.6 C 3.2 km/h
209 29-11-2020 17:20:00 -0.7 C 3.97 g/m*3 -0.7 C 1.6 km/h
210 29-11-2020 17:25:00 -0.8 C 3.94 g/m*3 -0.8 C 1.6 km/h
211 29-11-2020 17:30:00 -0.9 C 3.96 g/m*3 -0.9 C 3.2 km/h
212 29-11-2020 17:35:00 -1 C 3.93 g/m*3 -1 C 1.6 km/h
213 29-11-2020 17:40:00 -1.1 C 3.95 g/m*3 -1.1 C 1.6 km/h
214 29-11-2020 17:45:00 -1.2 C 3.92 g/m*3 -1.2 C 1.6 km/h
215 29-11-2020 17:50:00 -1.2 C 3.92 g/m*3 -1.2 C 0 km/h
216 29-11-2020 17:55:00 -1.3 C 3.9 g/m*3 -1.3 C 0 km/h
217 29-11-2020 18:00:00 -1.4 C 3.91 g/m*3 -1.4 C 0 km/h
218 29-11-2020 18:05:00 -1.4 C 3.91 g/m*3 -1.4 C 0 km/h
219 29-11-2020 18:10:00 -1.5 C 3.89 g/m*3 -1.5 C 0 km/h
220 29-11-2020 18:15:00 -1.6 C 3.86 g/m*3 -1.6 C 0 km/h
221 29-11-2020 18:20:00 -1.7 C 3.83 g/m*3 -1.7 C 0 km/h
222 29-11-2020 18:25:00 -1.7 C 3.83 g/m*3 -1.7 C 0 km/h
223 29-11-2020 18:30:00 -1.8 C 3.85 g/m*3 -1.8 C 0 km/h
224 29-11-2020 18:35:00 -1.8 C 3.8 g/m*3 -1.8 C 0 km/h
225 29-11-2020 18:40:00 -1.9 C 3.82 g/m*3 -1.9 C 0 km/h
Sensor: Nr:Datum:Temp:Abs-Feuchte:Windchill:Wind:
Aussen-T/F 226 29-11-2020 18:45:00 -2 C 3.79 g/m*3 -2 C 0 km/h
227 29-11-2020 18:50:00 -2.1 C 3.77 g/m*3 -2.1 C 0 km/h
228 29-11-2020 18:55:00 -2.1 C 3.77 g/m*3 -2.1 C 0 km/h
229 29-11-2020 19:00:00 -2.2 C 3.74 g/m*3 -2.2 C 0 km/h
230 29-11-2020 19:05:00 -2.2 C 3.74 g/m*3 -2.2 C 0 km/h
231 29-11-2020 19:10:00 -2.3 C 3.76 g/m*3 -2.3 C 0 km/h
232 29-11-2020 19:15:00 -2.3 C 3.76 g/m*3 -2.3 C 0 km/h
233 29-11-2020 19:20:00 -2.3 C 3.76 g/m*3 -2.3 C 0 km/h
234 29-11-2020 19:25:00 -2.3 C 3.76 g/m*3 -2.3 C 0 km/h
235 29-11-2020 19:30:00 -2.3 C 3.76 g/m*3 -2.3 C 0 km/h
236 29-11-2020 19:35:00 -2.4 C 3.73 g/m*3 -2.4 C 0 km/h
237 29-11-2020 19:40:00 -2.4 C 3.77 g/m*3 -2.4 C 0 km/h
238 29-11-2020 19:45:00 -2.4 C 3.77 g/m*3 -2.4 C 0 km/h
239 29-11-2020 19:50:00 -2.5 C 3.74 g/m*3 -2.5 C 0 km/h
240 29-11-2020 19:55:00 -2.5 C 3.74 g/m*3 -2.5 C 0 km/h
241 29-11-2020 20:00:00 -2.6 C 3.72 g/m*3 -2.6 C 0 km/h
242 29-11-2020 20:05:00 -2.6 C 3.72 g/m*3 -2.6 C 0 km/h
243 29-11-2020 20:10:00 -2.6 C 3.72 g/m*3 -2.6 C 0 km/h
244 29-11-2020 20:15:00 -2.7 C 3.69 g/m*3 -2.7 C 0 km/h
245 29-11-2020 20:20:00 -2.7 C 3.69 g/m*3 -2.7 C 0 km/h
246 29-11-2020 20:25:00 -2.7 C 3.69 g/m*3 -2.7 C 3.2 km/h
247 29-11-2020 20:30:00 -2.7 C 3.69 g/m*3 -2.7 C 0 km/h
248 29-11-2020 20:35:00 -2.7 C 3.69 g/m*3 -2.7 C 0 km/h
249 29-11-2020 20:40:00 -2.8 C 3.67 g/m*3 -2.8 C 0 km/h
250 29-11-2020 20:45:00 -2.8 C 3.67 g/m*3 -2.8 C 0 km/h
Sensor: Nr:Datum:Temp:Abs-Feuchte:Windchill:Wind:
Aussen-T/F 251 29-11-2020 20:50:00 -2.8 C 3.67 g/m*3 -2.8 C 0 km/h
252 29-11-2020 20:55:00 -2.9 C 3.64 g/m*3 -2.9 C 0 km/h
253 29-11-2020 21:00:00 -2.9 C 3.64 g/m*3 -2.9 C 0 km/h
254 29-11-2020 21:05:00 -3 C 3.61 g/m*3 -3 C 0 km/h
255 29-11-2020 21:10:00 -3.1 C 3.59 g/m*3 -3.1 C 0 km/h
256 29-11-2020 21:15:00 -3.1 C 3.59 g/m*3 -3.1 C 0 km/h
257 29-11-2020 21:20:00 -3.2 C 3.56 g/m*3 -3.2 C 0 km/h
258 29-11-2020 21:25:00 -3.2 C 3.6 g/m*3 -3.2 C 0 km/h
259 29-11-2020 21:30:00 -3.2 C 3.6 g/m*3 -3.2 C 0 km/h
260 29-11-2020 21:35:00 -3.3 C 3.58 g/m*3 -3.3 C 0 km/h
261 29-11-2020 21:40:00 -3.3 C 3.58 g/m*3 -3.3 C 0 km/h
262 29-11-2020 21:45:00 -3.3 C 3.58 g/m*3 -3.3 C 0 km/h
263 29-11-2020 21:50:00 -3.3 C 3.58 g/m*3 -3.3 C 0 km/h
264 29-11-2020 21:55:00 -3.4 C 3.55 g/m*3 -3.4 C 0 km/h
265 29-11-2020 22:00:00 -3.4 C 3.55 g/m*3 -3.4 C 0 km/h
266 29-11-2020 22:05:00 -3.4 C 3.55 g/m*3 -3.4 C 0 km/h
267 29-11-2020 22:10:00 -3.4 C 3.55 g/m*3 -3.4 C 0 km/h
268 29-11-2020 22:15:00 -3.5 C 3.53 g/m*3 -3.5 C 0 km/h
269 29-11-2020 22:20:00 -3.5 C 3.53 g/m*3 -3.5 C 0 km/h
270 29-11-2020 22:25:00 -3.5 C 3.53 g/m*3 -3.5 C 0 km/h
271 29-11-2020 22:30:00 -3.6 C 3.5 g/m*3 -3.6 C 0 km/h
272 29-11-2020 22:35:00 -3.6 C 3.5 g/m*3 -3.6 C 0 km/h
273 29-11-2020 22:40:00 -3.6 C 3.5 g/m*3 -3.6 C 3.2 km/h
274 29-11-2020 22:45:00 -3.5 C 3.56 g/m*3 -3.5 C 3.2 km/h
275 29-11-2020 22:50:00 -3.3 C 3.61 g/m*3 -3.3 C 0 km/h
Sensor: Nr:Datum:Temp:Abs-Feuchte:Windchill:Wind:
Aussen-T/F 276 29-11-2020 22:55:00 -3.3 C 3.61 g/m*3 -3.3 C 0 km/h
277 29-11-2020 23:00:00 -3.4 C 3.59 g/m*3 -3.4 C 0 km/h
278 29-11-2020 23:05:00 -3.4 C 3.59 g/m*3 -3.4 C 0 km/h
279 29-11-2020 23:10:00 -3.5 C 3.56 g/m*3 -3.5 C 0 km/h
280 29-11-2020 23:15:00 -3.6 C 3.5 g/m*3 -3.6 C 0 km/h
281 29-11-2020 23:20:00 -3.6 C 3.54 g/m*3 -3.6 C 0 km/h
282 29-11-2020 23:25:00 -3.6 C 3.54 g/m*3 -3.6 C 0 km/h
283 29-11-2020 23:30:00 -3.6 C 3.54 g/m*3 -3.6 C 0 km/h
284 29-11-2020 23:35:00 -3.6 C 3.54 g/m*3 -3.6 C 0 km/h
285 29-11-2020 23:40:00 -3.6 C 3.54 g/m*3 -3.6 C 0 km/h
286 29-11-2020 23:45:00 -3.6 C 3.54 g/m*3 -3.6 C 0 km/h
287 29-11-2020 23:50:00 -3.6 C 3.54 g/m*3 -3.6 C 0 km/h
288 29-11-2020 23:55:00 -3.6 C 3.54 g/m*3 -3.6 C 0 km/h
289 30-11-2020 00:00:00 -3.7 C 3.51 g/m*3 -3.7 C 0 km/h
290 30-11-2020 00:05:00 -3.7 C 3.51 g/m*3 -3.7 C 0 km/h
291 30-11-2020 00:10:00 -3.7 C 3.51 g/m*3 -3.7 C 0 km/h
292 30-11-2020 00:15:00 -3.8 C 3.49 g/m*3 -3.8 C 0 km/h
293 30-11-2020 00:20:00 -3.8 C 3.49 g/m*3 -3.8 C 0 km/h
294 30-11-2020 00:25:00 -3.9 C 3.46 g/m*3 -3.9 C 0 km/h
295 30-11-2020 00:30:00 -3.9 C 3.46 g/m*3 -3.9 C 0 km/h
296 30-11-2020 00:35:00 -3.9 C 3.46 g/m*3 -3.9 C 0 km/h
297 30-11-2020 00:40:00 -4 C 3.44 g/m*3 -4 C 0 km/h
298 30-11-2020 00:45:00 -4.1 C 3.41 g/m*3 -4.1 C 0 km/h
299 30-11-2020 00:50:00 -4.1 C 3.41 g/m*3 -4.1 C 0 km/h
300 30-11-2020 00:55:00 -4.2 C 3.39 g/m*3 -4.2 C 0 km/h
Sensor: Nr:Datum:Temp:Abs-Feuchte:Windchill:Wind:
Aussen-T/F 301 30-11-2020 01:00:00 -4.2 C 3.39 g/m*3 -4.2 C 0 km/h
302 30-11-2020 01:05:00 -4.2 C 3.39 g/m*3 -4.2 C 0 km/h
303 30-11-2020 01:10:00 -4.3 C 3.37 g/m*3 -4.3 C 0 km/h
304 30-11-2020 01:15:00 -4.3 C 3.37 g/m*3 -4.3 C 0 km/h
305 30-11-2020 01:20:00 -4.3 C 3.37 g/m*3 -4.3 C 0 km/h
306 30-11-2020 01:25:00 -4.3 C 3.37 g/m*3 -4.3 C 0 km/h
307 30-11-2020 01:30:00 -4.4 C 3.34 g/m*3 -4.4 C 0 km/h
308 30-11-2020 01:35:00 -4.4 C 3.34 g/m*3 -4.4 C 0 km/h
309 30-11-2020 01:40:00 -4.4 C 3.34 g/m*3 -4.4 C 0 km/h
310 30-11-2020 01:45:00 -4.4 C 3.34 g/m*3 -4.4 C 0 km/h
311 30-11-2020 01:50:00 -4.3 C 3.37 g/m*3 -4.3 C 0 km/h
312 30-11-2020 01:55:00 -4.2 C 3.39 g/m*3 -4.2 C 0 km/h
313 30-11-2020 02:00:00 -4.1 C 3.45 g/m*3 -4.1 C 0 km/h
314 30-11-2020 02:05:00 -4.2 C 3.43 g/m*3 -4.2 C 0 km/h
315 30-11-2020 02:10:00 -4.3 C 3.37 g/m*3 -4.3 C 0 km/h
316 30-11-2020 02:15:00 -4.4 C 3.34 g/m*3 -4.4 C 0 km/h
317 30-11-2020 02:20:00 -4.4 C 3.34 g/m*3 -4.4 C 0 km/h
318 30-11-2020 02:25:00 -4.6 C 3.29 g/m*3 -4.6 C 0 km/h
319 30-11-2020 02:30:00 -4.6 C 3.29 g/m*3 -4.6 C 0 km/h
320 30-11-2020 02:35:00 -4.7 C 3.27 g/m*3 -4.7 C 0 km/h
321 30-11-2020 02:40:00 -4.8 C 3.25 g/m*3 -4.8 C 0 km/h
322 30-11-2020 02:45:00 -4.8 C 3.25 g/m*3 -4.8 C 0 km/h
323 30-11-2020 02:50:00 -4.8 C 3.25 g/m*3 -4.8 C 0 km/h
324 30-11-2020 02:55:00 -4.9 C 3.22 g/m*3 -4.9 C 0 km/h
325 30-11-2020 03:00:00 -4.9 C 3.22 g/m*3 -4.9 C 0 km/h
Sensor: Nr:Datum:Temp:Abs-Feuchte:Windchill:Wind:
Aussen-T/F 326 30-11-2020 03:05:00 -4.9 C 3.22 g/m*3 -4.9 C 0 km/h
327 30-11-2020 03:10:00 -4.9 C 3.22 g/m*3 -4.9 C 0 km/h
328 30-11-2020 03:15:00 -4.9 C 3.22 g/m*3 -4.9 C 0 km/h
329 30-11-2020 03:20:00 -4.9 C 3.22 g/m*3 -4.9 C 0 km/h
330 30-11-2020 03:25:00 -4.8 C 3.25 g/m*3 -4.8 C 0 km/h
331 30-11-2020 03:30:00 -4.8 C 3.25 g/m*3 -4.8 C 0 km/h
332 30-11-2020 03:35:00 -4.8 C 3.25 g/m*3 -4.8 C 0 km/h
333 30-11-2020 03:40:00 -4.9 C 3.22 g/m*3 -4.9 C 0 km/h
334 30-11-2020 03:45:00 -4.9 C 3.22 g/m*3 -4.9 C 0 km/h
335 30-11-2020 03:50:00 -5 C 3.2 g/m*3 -5 C 0 km/h
336 30-11-2020 03:55:00 -5.1 C 3.18 g/m*3 -5.1 C 0 km/h
337 30-11-2020 04:00:00 -5.1 C 3.18 g/m*3 -5.1 C 0 km/h
338 30-11-2020 04:05:00 -5.2 C 3.15 g/m*3 -5.2 C 0 km/h
339 30-11-2020 04:10:00 -5.2 C 3.15 g/m*3 -5.2 C 0 km/h
340 30-11-2020 04:15:00 -5.2 C 3.15 g/m*3 -5.2 C 0 km/h
341 30-11-2020 04:20:00 -5.3 C 3.13 g/m*3 -5.3 C 0 km/h
342 30-11-2020 04:25:00 -5.3 C 3.13 g/m*3 -5.3 C 0 km/h
343 30-11-2020 04:30:00 -5.3 C 3.13 g/m*3 -5.3 C 0 km/h
344 30-11-2020 04:35:00 -5.3 C 3.13 g/m*3 -5.3 C 0 km/h
345 30-11-2020 04:40:00 -5.3 C 3.13 g/m*3 -5.3 C 0 km/h
346 30-11-2020 04:45:00 -5.3 C 3.13 g/m*3 -5.3 C 0 km/h
347 30-11-2020 04:50:00 -5.2 C 3.15 g/m*3 -5.2 C 0 km/h
348 30-11-2020 04:55:00 -5.2 C 3.15 g/m*3 -5.2 C 0 km/h
349 30-11-2020 05:00:00 -5.2 C 3.15 g/m*3 -5.2 C 0 km/h
350 30-11-2020 05:05:00 -5.3 C 3.13 g/m*3 -5.3 C 0 km/h
Sensor: Nr:Datum:Temp:Abs-Feuchte:Windchill:Wind:
Aussen-T/F 351 30-11-2020 05:10:00 -5.3 C 3.13 g/m*3 -5.3 C 0 km/h
352 30-11-2020 05:15:00 -5.4 C 3.11 g/m*3 -5.4 C 0 km/h
353 30-11-2020 05:20:00 -5.4 C 3.11 g/m*3 -5.4 C 0 km/h
354 30-11-2020 05:25:00 -5.5 C 3.09 g/m*3 -5.5 C 0 km/h
355 30-11-2020 05:30:00 -5.6 C 3.06 g/m*3 -5.6 C 0 km/h
356 30-11-2020 05:35:00 -5.5 C 3.09 g/m*3 -5.5 C 0 km/h
357 30-11-2020 05:40:00 -5.4 C 3.11 g/m*3 -5.4 C 0 km/h
358 30-11-2020 05:45:00 -5.3 C 3.17 g/m*3 -5.3 C 0 km/h
359 30-11-2020 05:50:00 -5.2 C 3.19 g/m*3 -5.2 C 0 km/h
360 30-11-2020 05:55:00 -5.2 C 3.19 g/m*3 -5.2 C 0 km/h
361 30-11-2020 06:00:00 -5.2 C 3.19 g/m*3 -5.2 C 0 km/h
362 30-11-2020 06:05:00 -5.2 C 3.19 g/m*3 -5.2 C 0 km/h
363 30-11-2020 06:10:00 -5.1 C 3.21 g/m*3 -5.1 C 0 km/h
364 30-11-2020 06:15:00 -5.1 C 3.21 g/m*3 -5.1 C 0 km/h
365 30-11-2020 06:20:00 -5.1 C 3.21 g/m*3 -5.1 C 0 km/h
366 30-11-2020 06:25:00 -5.1 C 3.21 g/m*3 -5.1 C 0 km/h
367 30-11-2020 06:30:00 -5.2 C 3.15 g/m*3 -5.2 C 0 km/h
368 30-11-2020 06:35:00 -5.3 C 3.13 g/m*3 -5.3 C 0 km/h
369 30-11-2020 06:40:00 -5.4 C 3.11 g/m*3 -5.4 C 0 km/h
370 30-11-2020 06:45:00 -5.4 C 3.11 g/m*3 -5.4 C 3.2 km/h
371 30-11-2020 06:50:00 -5.3 C 3.17 g/m*3 -5.3 C 0 km/h
372 30-11-2020 06:55:00 -5.2 C 3.19 g/m*3 -5.2 C 0 km/h
373 30-11-2020 07:00:00 -5.1 C 3.21 g/m*3 -5.1 C 0 km/h
374 30-11-2020 07:05:00 -5.1 C 3.21 g/m*3 -5.1 C 0 km/h
375 30-11-2020 07:10:00 -5 C 3.23 g/m*3 -5 C 0 km/h
Sensor: Nr:Datum:Temp:Abs-Feuchte:Windchill:Wind:
Aussen-T/F 376 30-11-2020 07:15:00 -4.9 C 3.26 g/m*3 -4.9 C 1.6 km/h
377 30-11-2020 07:20:00 -4.9 C 3.26 g/m*3 -4.9 C 0 km/h
378 30-11-2020 07:25:00 -4.9 C 3.26 g/m*3 -4.9 C 0 km/h
379 30-11-2020 07:30:00 -5 C 3.23 g/m*3 -5 C 0 km/h
380 30-11-2020 07:35:00 -5.1 C 3.21 g/m*3 -5.1 C 0 km/h
381 30-11-2020 07:40:00 -5.2 C 3.15 g/m*3 -5.2 C 0 km/h
382 30-11-2020 07:45:00 -5.3 C 3.13 g/m*3 -5.3 C 0 km/h
383 30-11-2020 07:50:00 -5.4 C 3.11 g/m*3 -5.4 C 0 km/h
384 30-11-2020 07:55:00 -5.6 C 3.06 g/m*3 -5.6 C 0 km/h
385 30-11-2020 08:00:00 -5.7 C 3.04 g/m*3 -5.7 C 1.6 km/h
386 30-11-2020 08:05:00 -5.8 C 3.02 g/m*3 -5.8 C 0 km/h
387 30-11-2020 08:10:00 -5.8 C 3.02 g/m*3 -5.8 C 1.6 km/h
388 30-11-2020 08:15:00 -5.8 C 3.02 g/m*3 -5.8 C 0 km/h
389 30-11-2020 08:20:00 -5.8 C 3.02 g/m*3 -5.8 C 0 km/h
390 30-11-2020 08:25:00 -5.7 C 3.04 g/m*3 -5.7 C 1.6 km/h
391 30-11-2020 08:30:00 -5.7 C 3.04 g/m*3 -5.7 C 0 km/h
392 30-11-2020 08:35:00 -5.7 C 3.04 g/m*3 -5.7 C 0 km/h
393 30-11-2020 08:40:00 -5.8 C 3.02 g/m*3 -5.8 C 0 km/h
394 30-11-2020 08:45:00 -5.8 C 3.02 g/m*3 -5.8 C 0 km/h
395 30-11-2020 08:50:00 -5.8 C 3.02 g/m*3 -5.8 C 0 km/h
396 30-11-2020 08:55:00 -5.8 C 3.02 g/m*3 -5.8 C 0 km/h
397 30-11-2020 09:00:00 -5.8 C 3.02 g/m*3 -5.8 C 0 km/h
398 30-11-2020 09:05:00 -5.7 C 3.07 g/m*3 -5.7 C 0 km/h
399 30-11-2020 09:10:00 -5.6 C 3.1 g/m*3 -5.6 C 1.6 km/h
400 30-11-2020 09:15:00 -5.5 C 3.12 g/m*3 -5.5 C 0 km/h
Sensor: Nr:Datum:Temp:Abs-Feuchte:Windchill:Wind:
Aussen-T/F 401 30-11-2020 09:20:00 -5.4 C 3.11 g/m*3 -5.4 C 0 km/h
402 30-11-2020 09:25:00 -5.4 C 3.11 g/m*3 -5.4 C 0 km/h
403 30-11-2020 09:30:00 -5.4 C 3.11 g/m*3 -5.4 C 0 km/h
404 30-11-2020 09:35:00 -5.4 C 3.14 g/m*3 -5.4 C 0 km/h
405 30-11-2020 09:40:00 -5.4 C 3.14 g/m*3 -5.4 C 0 km/h
406 30-11-2020 09:45:00 -5.3 C 3.17 g/m*3 -5.3 C 0 km/h
407 30-11-2020 09:50:00 -5.3 C 3.17 g/m*3 -5.3 C 0 km/h
408 30-11-2020 09:55:00 -5.3 C 3.17 g/m*3 -5.3 C 0 km/h
409 30-11-2020 10:00:00 -5.2 C 3.19 g/m*3 -5.2 C 0 km/h
410 30-11-2020 10:05:00 -5.2 C 3.19 g/m*3 -5.2 C 0 km/h
411 30-11-2020 10:10:00 -5.1 C 3.21 g/m*3 -5.1 C 1.6 km/h
412 30-11-2020 10:15:00 -5.1 C 3.21 g/m*3 -5.1 C 0 km/h
413 30-11-2020 10:20:00 -5 C 3.23 g/m*3 -5 C 3.2 km/h
414 30-11-2020 10:25:00 -4.9 C 3.26 g/m*3 -4.9 C 1.6 km/h
415 30-11-2020 10:30:00 -4.8 C 3.28 g/m*3 -4.8 C 0 km/h
416 30-11-2020 10:35:00 -4.7 C 3.31 g/m*3 -4.7 C 0 km/h
417 30-11-2020 10:40:00 -4.6 C 3.33 g/m*3 -4.6 C 0 km/h
418 30-11-2020 10:45:00 -4.5 C 3.35 g/m*3 -4.5 C 0 km/h
419 30-11-2020 10:50:00 -4.4 C 3.38 g/m*3 -4.4 C 0 km/h
420 30-11-2020 10:55:00 -4.3 C 3.4 g/m*3 -4.3 C 0 km/h
421 30-11-2020 11:00:00 -4.3 C 3.4 g/m*3 -4.3 C 1.6 km/h
422 30-11-2020 11:05:00 -4.2 C 3.43 g/m*3 -4.2 C 0 km/h
423 30-11-2020 11:10:00 -4.1 C 3.45 g/m*3 -4.1 C 0 km/h
424 30-11-2020 11:15:00 -3.9 C 3.5 g/m*3 -3.9 C 0 km/h
425 30-11-2020 11:20:00 -3.8 C 3.53 g/m*3 -3.8 C 0 km/h
Sensor: Nr:Datum:Temp:Abs-Feuchte:Windchill:Wind:
Aussen-T/F 426 30-11-2020 11:25:00 -3.7 C 3.55 g/m*3 -3.7 C 0 km/h
427 30-11-2020 11:30:00 -3.6 C 3.58 g/m*3 -3.6 C 3.2 km/h
428 30-11-2020 11:35:00 -3.5 C 3.6 g/m*3 -3.5 C 3.2 km/h
429 30-11-2020 11:40:00 -3.3 C 3.65 g/m*3 -3.3 C 3.2 km/h
430 30-11-2020 11:45:00 -3.2 C 3.68 g/m*3 -3.2 C 3.2 km/h
431 30-11-2020 11:50:00 -3.2 C 3.72 g/m*3 -3.2 C 0 km/h
432 30-11-2020 11:55:00 -3.1 C 3.71 g/m*3 -3.1 C 0 km/h
433 30-11-2020 12:00:00 -2.9 C 3.76 g/m*3 -2.9 C 3.2 km/h
434 30-11-2020 12:05:00 -2.9 C 3.8 g/m*3 -2.9 C 1.6 km/h
435 30-11-2020 12:10:00 -2.8 C 3.82 g/m*3 -2.8 C 0 km/h
436 30-11-2020 12:15:00 -2.8 C 3.78 g/m*3 -2.8 C 0 km/h
437 30-11-2020 12:20:00 -2.7 C 3.81 g/m*3 -2.7 C 0 km/h
438 30-11-2020 12:25:00 -2.6 C 3.84 g/m*3 -2.6 C 3.2 km/h
439 30-11-2020 12:30:00 -2.4 C 3.93 g/m*3 -2.4 C 1.6 km/h
440 30-11-2020 12:35:00 -2.3 C 3.96 g/m*3 -2.3 C 4.8 km/h
441 30-11-2020 12:40:00 -2.1 C 4.02 g/m*3 -2.1 C 0 km/h
442 30-11-2020 12:45:00 -1.8 C 4.1 g/m*3 -1.8 C 3.2 km/h
443 30-11-2020 12:50:00 -1.5 C 4.19 g/m*3 -1.5 C 0 km/h
444 30-11-2020 12:55:00 -1.2 C 4.28 g/m*3 -1.2 C 3.2 km/h
445 30-11-2020 13:00:00 -0.9 C 4.37 g/m*3 -3.22 C 6.4 km/h
446 30-11-2020 13:05:00 -0.7 C 4.43 g/m*3 -2.99 C 6.4 km/h
447 30-11-2020 13:10:00 -0.5 C 4.49 g/m*3 -0.5 C 1.6 km/h
448 30-11-2020 13:15:00 -0.3 C 4.56 g/m*3 -0.3 C 0 km/h
449 30-11-2020 13:20:00 -0.2 C 4.59 g/m*3 -0.2 C 0 km/h
450 30-11-2020 13:25:00 -0.1 C 4.62 g/m*3 -0.1 C 4.8 km/h
Sensor: Nr:Datum:Temp:Abs-Feuchte:Windchill:Wind:
Aussen-T/F 451 30-11-2020 13:30:00 0.1 C 4.68 g/m*3 0.1 C 4.8 km/h
452 30-11-2020 13:35:00 0.2 C 4.72 g/m*3 0.2 C 3.2 km/h
453 30-11-2020 13:40:00 0.4 C 4.78 g/m*3 0.4 C 3.2 km/h
454 30-11-2020 13:45:00 0.5 C 4.86 g/m*3 0.5 C 0 km/h
455 30-11-2020 13:50:00 0.7 C 4.88 g/m*3 0.7 C 1.6 km/h
456 30-11-2020 13:55:00 0.9 C 5 g/m*3 -2.16 C 9.7 km/h
457 30-11-2020 14:00:00 1.1 C 5.02 g/m*3 1.1 C 1.6 km/h
458 30-11-2020 14:05:00 1.3 C 5.14 g/m*3 1.3 C 4.8 km/h
459 30-11-2020 14:10:00 1.6 C 5.25 g/m*3 -1.33 C 9.7 km/h
460 30-11-2020 14:15:00 1.8 C 5.26 g/m*3 1.8 C 4.8 km/h
461 30-11-2020 14:20:00 2 C 5.28 g/m*3 2 C 0 km/h
462 30-11-2020 14:25:00 2.1 C 5.26 g/m*3 -0.73 C 9.7 km/h
463 30-11-2020 14:30:00 2.2 C 5.24 g/m*3 2.2 C 1.6 km/h
464 30-11-2020 14:35:00 2.3 C 5.27 g/m*3 2.3 C 3.2 km/h
465 30-11-2020 14:40:00 2.4 C 5.25 g/m*3 2.4 C 0 km/h
466 30-11-2020 14:45:00 2.4 C 5.25 g/m*3 2.4 C 4.8 km/h
467 30-11-2020 14:50:00 2.5 C 5.23 g/m*3 2.5 C 4.8 km/h
468 30-11-2020 14:55:00 2.5 C 5.17 g/m*3 2.5 C 1.6 km/h
469 30-11-2020 15:00:00 2.4 C 5.14 g/m*3 2.4 C 1.6 km/h
470 30-11-2020 15:05:00 2.3 C 5.05 g/m*3 2.3 C 1.6 km/h
471 30-11-2020 15:10:00 2.2 C 5.07 g/m*3 2.2 C 0 km/h
472 30-11-2020 15:15:00 2 C 4.95 g/m*3 2 C 3.2 km/h
473 30-11-2020 15:20:00 2 C 4.95 g/m*3 2 C 1.6 km/h
474 30-11-2020 15:25:00 2.1 C 4.98 g/m*3 2.1 C 1.6 km/h
475 30-11-2020 15:30:00 2.1 C 4.98 g/m*3 2.1 C 4.8 km/h
Sensor: Nr:Datum:Temp:Abs-Feuchte:Windchill:Wind:
Aussen-T/F 476 30-11-2020 15:35:00 2.2 C 4.96 g/m*3 -0.18 C 8.1 km/h
477 30-11-2020 15:40:00 2.3 C 4.93 g/m*3 2.3 C 4.8 km/h
478 30-11-2020 15:45:00 2.4 C 4.97 g/m*3 2.4 C 4.8 km/h
479 30-11-2020 15:50:00 2.5 C 4.94 g/m*3 0.17 C 8.1 km/h
480 30-11-2020 15:55:00 2.6 C 4.92 g/m*3 0.82 C 6.4 km/h
481 30-11-2020 16:00:00 2.7 C 4.89 g/m*3 -0.38 C 11.3 km/h
482 30-11-2020 16:05:00 2.8 C 4.93 g/m*3 -0.26 C 11.3 km/h
483 30-11-2020 16:10:00 2.9 C 4.9 g/m*3 -0.76 C 14.5 km/h
484 30-11-2020 16:15:00 3 C 4.93 g/m*3 -0.63 C 14.5 km/h
485 30-11-2020 16:20:00 3 C 4.93 g/m*3 0.34 C 9.7 km/h
486 30-11-2020 16:25:00 3 C 4.93 g/m*3 -0.02 C 11.3 km/h
487 30-11-2020 16:30:00 3 C 4.93 g/m*3 0.34 C 9.7 km/h
488 30-11-2020 16:35:00 3 C 4.93 g/m*3 -0.02 C 11.3 km/h
489 30-11-2020 16:40:00 2.9 C 4.9 g/m*3 0.64 C 8.1 km/h
490 30-11-2020 16:45:00 2.9 C 4.9 g/m*3 2.9 C 4.8 km/h
491 30-11-2020 16:50:00 2.8 C 4.87 g/m*3 2.8 C 4.8 km/h
492 30-11-2020 16:55:00 2.8 C 4.87 g/m*3 2.8 C 4.8 km/h
493 30-11-2020 17:00:00 2.8 C 4.87 g/m*3 1.05 C 6.4 km/h
494 30-11-2020 17:05:00 2.7 C 4.84 g/m*3 2.7 C 4.8 km/h
495 30-11-2020 17:10:00 2.7 C 4.84 g/m*3 0.4 C 8.1 km/h
496 30-11-2020 17:15:00 2.8 C 4.87 g/m*3 0.1 C 9.7 km/h
497 30-11-2020 17:20:00 2.8 C 4.87 g/m*3 -0.26 C 11.3 km/h
498 30-11-2020 17:25:00 2.8 C 4.87 g/m*3 0.52 C 8.1 km/h
499 30-11-2020 17:30:00 2.8 C 4.87 g/m*3 -0.26 C 11.3 km/h
500 30-11-2020 17:35:00 2.9 C 4.9 g/m*3 0.64 C 8.1 km/h
Sensor: Nr:Datum:Temp:Abs-Feuchte:Windchill:Wind:
Aussen-T/F 501 30-11-2020 17:40:00 2.9 C 4.9 g/m*3 0.22 C 9.7 km/h
502 30-11-2020 17:45:00 2.9 C 4.9 g/m*3 -0.14 C 11.3 km/h
503 30-11-2020 17:50:00 2.9 C 4.9 g/m*3 1.17 C 6.4 km/h
504 30-11-2020 17:55:00 2.9 C 4.9 g/m*3 0.22 C 9.7 km/h
505 30-11-2020 18:00:00 2.9 C 4.9 g/m*3 1.17 C 6.4 km/h
506 30-11-2020 18:05:00 2.9 C 4.9 g/m*3 -0.76 C 14.5 km/h
507 30-11-2020 18:10:00 3 C 4.93 g/m*3 -1.36 C 19.3 km/h
508 30-11-2020 18:15:00 3.1 C 4.91 g/m*3 0.1 C 11.3 km/h
509 30-11-2020 18:20:00 3.1 C 4.91 g/m*3 -0.51 C 14.5 km/h
510 30-11-2020 18:25:00 3.2 C 4.94 g/m*3 0.58 C 9.7 km/h
511 30-11-2020 18:30:00 3.2 C 4.94 g/m*3 -0.89 C 17.7 km/h
512 30-11-2020 18:35:00 3.2 C 4.94 g/m*3 -0.65 C 16.1 km/h
513 30-11-2020 18:40:00 3.1 C 4.91 g/m*3 -0.77 C 16.1 km/h
514 30-11-2020 18:45:00 3.1 C 4.91 g/m*3 -0.77 C 16.1 km/h
515 30-11-2020 18:50:00 3.1 C 4.97 g/m*3 -0.51 C 14.5 km/h
516 30-11-2020 18:55:00 3 C 4.99 g/m*3 -1.14 C 17.7 km/h
517 30-11-2020 19:00:00 2.9 C 5.02 g/m*3 -0.76 C 14.5 km/h
518 30-11-2020 19:05:00 2.8 C 5.04 g/m*3 -0.59 C 12.9 km/h
519 30-11-2020 19:10:00 2.7 C 5.01 g/m*3 -0.02 C 9.7 km/h
520 30-11-2020 19:15:00 2.7 C 5.07 g/m*3 -0.71 C 12.9 km/h
521 30-11-2020 19:20:00 2.7 C 5.07 g/m*3 -0.02 C 9.7 km/h
522 30-11-2020 19:25:00 2.6 C 5.09 g/m*3 -1.12 C 14.5 km/h
523 30-11-2020 19:30:00 2.6 C 5.15 g/m*3 0.29 C 8.1 km/h
524 30-11-2020 19:35:00 2.5 C 5.12 g/m*3 -0.95 C 12.9 km/h
525 30-11-2020 19:40:00 2.4 C 5.14 g/m*3 -0.74 C 11.3 km/h
Sensor: Nr:Datum:Temp:Abs-Feuchte:Windchill:Wind:
Aussen-T/F 526 30-11-2020 19:45:00 2.4 C 5.14 g/m*3 0.59 C 6.4 km/h
527 30-11-2020 19:50:00 2.3 C 5.1 g/m*3 -0.87 C 11.3 km/h
528 30-11-2020 19:55:00 2.3 C 5.16 g/m*3 -0.87 C 11.3 km/h
529 30-11-2020 20:00:00 2.3 C 5.16 g/m*3 2.3 C 4.8 km/h
530 30-11-2020 20:05:00 2.2 C 5.13 g/m*3 -1.89 C 16.1 km/h
531 30-11-2020 20:10:00 2.2 C 5.13 g/m*3 -1.32 C 12.9 km/h
532 30-11-2020 20:15:00 2.2 C 5.18 g/m*3 -2.37 C 19.3 km/h
533 30-11-2020 20:20:00 2.1 C 5.15 g/m*3 -1.44 C 12.9 km/h
534 30-11-2020 20:25:00 2.1 C 5.15 g/m*3 -1.44 C 12.9 km/h
535 30-11-2020 20:30:00 2.1 C 5.15 g/m*3 -1.74 C 14.5 km/h
536 30-11-2020 20:35:00 2.1 C 5.15 g/m*3 -1.11 C 11.3 km/h
537 30-11-2020 20:40:00 2 C 5.17 g/m*3 -1.86 C 14.5 km/h
538 30-11-2020 20:45:00 2 C 5.17 g/m*3 -2.14 C 16.1 km/h
539 30-11-2020 20:50:00 2 C 5.17 g/m*3 -1.56 C 12.9 km/h
540 30-11-2020 20:55:00 2 C 5.17 g/m*3 -1.23 C 11.3 km/h
541 30-11-2020 21:00:00 2 C 5.17 g/m*3 -1.56 C 12.9 km/h
542 30-11-2020 21:05:00 1.9 C 5.13 g/m*3 -0.97 C 9.7 km/h
543 30-11-2020 21:10:00 1.9 C 5.13 g/m*3 -0.97 C 9.7 km/h
544 30-11-2020 21:15:00 1.9 C 5.19 g/m*3 -1.35 C 11.3 km/h
545 30-11-2020 21:20:00 1.9 C 5.19 g/m*3 -0.54 C 8.1 km/h
546 30-11-2020 21:25:00 1.9 C 5.19 g/m*3 -0.97 C 9.7 km/h
547 30-11-2020 21:30:00 1.9 C 5.19 g/m*3 -0.54 C 8.1 km/h
548 30-11-2020 21:35:00 1.9 C 5.19 g/m*3 0.01 C 6.4 km/h
549 30-11-2020 21:40:00 1.9 C 5.19 g/m*3 1.9 C 4.8 km/h
550 30-11-2020 21:45:00 1.9 C 5.19 g/m*3 1.9 C 3.2 km/h
Sensor: Nr:Datum:Temp:Abs-Feuchte:Windchill:Wind:
Aussen-T/F 551 30-11-2020 21:50:00 1.9 C 5.19 g/m*3 1.9 C 0 km/h
552 30-11-2020 21:55:00 1.9 C 5.19 g/m*3 1.9 C 1.6 km/h
553 30-11-2020 22:00:00 1.9 C 5.19 g/m*3 1.9 C 3.2 km/h
554 30-11-2020 22:05:00 1.9 C 5.19 g/m*3 1.9 C 1.6 km/h
555 30-11-2020 22:10:00 1.9 C 5.19 g/m*3 1.9 C 4.8 km/h
556 30-11-2020 22:15:00 1.9 C 5.24 g/m*3 1.9 C 4.8 km/h
557 30-11-2020 22:20:00 1.9 C 5.24 g/m*3 1.9 C 3.2 km/h
558 30-11-2020 22:25:00 1.9 C 5.24 g/m*3 1.9 C 3.2 km/h
559 30-11-2020 22:30:00 1.9 C 5.24 g/m*3 1.9 C 4.8 km/h
560 30-11-2020 22:35:00 1.9 C 5.24 g/m*3 1.9 C 1.6 km/h
561 30-11-2020 22:40:00 1.9 C 5.24 g/m*3 -0.54 C 8.1 km/h
562 30-11-2020 22:45:00 1.9 C 5.24 g/m*3 1.9 C 4.8 km/h
563 30-11-2020 22:50:00 1.9 C 5.24 g/m*3 -0.54 C 8.1 km/h
564 30-11-2020 22:55:00 1.8 C 5.15 g/m*3 -1.09 C 9.7 km/h
565 30-11-2020 23:00:00 1.8 C 5.15 g/m*3 -2.11 C 14.5 km/h
566 30-11-2020 23:05:00 1.8 C 5.15 g/m*3 -1.09 C 9.7 km/h
567 30-11-2020 23:10:00 1.7 C 5.12 g/m*3 -1.93 C 12.9 km/h
568 30-11-2020 23:15:00 1.7 C 5.17 g/m*3 -3.22 C 20.9 km/h
569 30-11-2020 23:20:00 1.7 C 5.17 g/m*3 -3.22 C 20.9 km/h
570 30-11-2020 23:25:00 1.6 C 5.14 g/m*3 -1.33 C 9.7 km/h
571 30-11-2020 23:30:00 1.5 C 5.05 g/m*3 -0.45 C 6.4 km/h
572 30-11-2020 23:35:00 1.5 C 5.05 g/m*3 -0.45 C 6.4 km/h
573 30-11-2020 23:40:00 1.4 C 5.07 g/m*3 -2.29 C 12.9 km/h
574 30-11-2020 23:45:00 1.4 C 5.07 g/m*3 -1.57 C 9.7 km/h
575 30-11-2020 23:50:00 1.4 C 5.07 g/m*3 -2.6 C 14.5 km/h
Sensor: Nr:Datum:Temp:Abs-Feuchte:Windchill:Wind:
Aussen-T/F 576 30-11-2020 23:55:00 1.4 C 5.07 g/m*3 -1.12 C 8.1 km/h

Legende:
   Min
   Max


Maximal/Minimal-Werte vom 29.11.2020 - 30.11.2020

Sensor Min Max Avg
Temp
(Aussen-T/F)
-5.8 °C
30-11-2020  08:05:00
3.9 °C
29-11-2020  00:15:00
-0.33 °C
Abs-Feuchte
(Aussen-T/F)
3.02 g/m*3
30-11-2020  08:05:00
5.81 g/m*3
29-11-2020  00:15:00
4.26 g/m*3
Windchill
(Aussen-T/F)
-5.8 C
30-11-2020  08:05:00
3.9 C
29-11-2020  00:15:00
-1.1 C

Die Daten stammen von einer Davis Vantage Pro 2 Wetter-Station und werden unter Linux mit der Software wview2wettercgi und aufbereitet. Alle Angaben erfolgen ohne Gewähr für ihre Vollständigkeit oder Richtigkeit.
Kontakt: Rainer Krienke krienke@uni-koblenz.de . Meine Webseiten an der Uni Koblenz oder privat.
Version: $Revision: 0.78 $